Hourly Data Report for July 04, 2016

TORONTO CITY
ONTARIO

43°40'00.000" N
79°24'00.000" W
112.50 m
6158355
71508
XTO

Download Data

Hourly Data (July 2016)
Hourly Data Report for July 4, 2016
TIME
LST
Temp Definition
°C
Dew Point Definition
°C
Rel Hum Definition
%
Precip. Amount Definition
mm

Wind Dir Definition
10's deg

Wind Spd Definition
km/h
Visibility Definition
km
Stn Press Definition
kPa
Hmdx Definition


Wind Chill Definition


Weather Definition


00:00 19.3 9.6 53 0.0 LegendMM LegendMM   100.38     LegendNANA
01:00 18.6 10.0 58 0.0 LegendMM LegendMM   100.37     LegendNANA
02:00 17.4 10.1 62 0.0 LegendMM LegendMM   100.35     LegendNANA
03:00 17.0 9.6 61 0.0 LegendMM LegendMM   100.32     LegendNANA
04:00 16.4 9.9 65 0.0 LegendMM LegendMM   100.32     LegendNANA
05:00 16.5 9.9 65 0.0 LegendMM LegendMM   100.37     LegendNANA
06:00 17.3 10.7 65 0.0 LegendMM LegendMM   100.39     LegendNANA
07:00 20.4 10.8 54 0.0 LegendMM LegendMM   100.38     LegendNANA
08:00 24.3 9.1 38 0.0 LegendMM LegendMM   100.37 25   LegendNANA
09:00 24.6 7.9 35 0.0 LegendMM LegendMM   100.35 25   LegendNANA
10:00 24.9 10.4 40 0.0 LegendMM LegendMM   100.28 26   LegendNANA
11:00 26.2 8.0 32 0.0 LegendMM LegendMM   100.23 27   LegendNANA
12:00 26.1 7.8 31 0.0 LegendMM LegendMM   100.17 26   LegendNANA
13:00 27.5 8.5 30 0.0 LegendMM LegendMM   100.09 28   LegendNANA
14:00 27.6 7.5 28 0.0 LegendMM LegendMM   100.04 28   LegendNANA
15:00 28.3 7.0 26 0.0 LegendMM LegendMM   99.94 28   LegendNANA
16:00 26.4 8.2 32 0.0 LegendMM LegendMM   99.89 27   LegendNANA
17:00 24.1 9.0 38 0.0 LegendMM LegendMM   99.84 25   LegendNANA
18:00 23.6 8.8 39 0.0 LegendMM LegendMM   99.77     LegendNANA
19:00 22.7 8.4 40 0.0 LegendMM LegendMM   99.72     LegendNANA
20:00 21.7 9.5 46 0.0 LegendMM LegendMM   99.67     LegendNANA
21:00 21.4 10.0 48 0.0 LegendMM LegendMM   99.66     LegendNANA
22:00 21.0 9.4 47 0.0 LegendMM LegendMM   99.66     LegendNANA
23:00 21.3 9.7 47 0.0 LegendMM LegendMM   99.64     LegendNANA

Notes on Data Quality.

Legend

  • E = Estimated
  • M = Missing
  • NA = Not Available*
  • [empty] = Indicates an unobserved value
Date modified: